HAZ3701 ZGGG-ZJSY

Flight info

Callsign HAZ3701
Flight time N/A
Altitude 25600
Route VIBOS9 VIBOS R473 ZUH R200 BIGRO G221 WL
Aircraft A320/M-SDE3FGHIRWY/LB1

Departure

Time 2026-05-05 16:36
Airport Guangzhou Baiyun International Airport (ZGGG)

Arrival

Time N/A
Airport Sanya Phoenix International Airport (ZJSY)
Time Latitude Longitude Altitude Speed Heading
2026-05-05 16:00 23.38882 113.30201 58 ft 0 kts 208°
2026-05-05 16:25 23.38909 113.30216 57 ft 2 kts 208°
2026-05-05 16:25 23.38923 113.30225 55 ft 2 kts 208°
2026-05-05 16:26 23.38953 113.30234 52 ft 2 kts 159°
2026-05-05 16:26 23.38976 113.30210 52 ft 2 kts 115°
2026-05-05 16:27 23.38979 113.30202 50 ft 0 kts 117°
2026-05-05 16:31 23.38961 113.30242 52 ft 12 kts 117°
2026-05-05 16:31 23.38917 113.30334 55 ft 14 kts 116°
2026-05-05 16:31 23.38875 113.30429 55 ft 13 kts 110°
2026-05-05 16:31 23.38811 113.30468 55 ft 12 kts 196°
2026-05-05 16:32 23.38713 113.30441 58 ft 20 kts 192°
2026-05-05 16:32 23.38558 113.30398 55 ft 24 kts 195°
2026-05-05 16:32 23.38387 113.30353 51 ft 26 kts 194°
2026-05-05 16:32 23.38205 113.30303 54 ft 28 kts 194°
2026-05-05 16:33 23.38021 113.30254 54 ft 27 kts 193°
2026-05-05 16:33 23.37846 113.30207 54 ft 23 kts 194°
2026-05-05 16:33 23.37749 113.30192 54 ft 11 kts 165°
2026-05-05 16:33 23.37685 113.30232 56 ft 10 kts 148°
2026-05-05 16:34 23.37641 113.30279 56 ft 8 kts 112°
2026-05-05 16:34 23.37626 113.30340 58 ft 9 kts 104°
2026-05-05 16:34 23.37612 113.30402 58 ft 8 kts 104°
2026-05-05 16:34 23.37596 113.30470 52 ft 11 kts 103°
2026-05-05 16:35 23.37591 113.30541 58 ft 4 kts 37°
2026-05-05 16:35 23.37612 113.30546 58 ft 0 kts 13°
2026-05-05 16:35 23.37694 113.30567 54 ft 45 kts 14°
2026-05-05 16:36 23.38246 113.30717 53 ft 114 kts 14°
2026-05-05 16:36 23.39199 113.30974 59 ft 166 kts 14°
2026-05-05 16:36 23.40360 113.31299 581 ft 174 kts 14°
2026-05-05 16:36 23.41547 113.31612 1276 ft 176 kts 14°
2026-05-05 16:37 23.42723 113.31909 2014 ft 177 kts 14°
2026-05-05 16:37 23.44011 113.32233 2394 ft 198 kts 14°
2026-05-05 16:37 23.45423 113.32589 2749 ft 219 kts 14°
2026-05-05 16:37 23.46985 113.32987 3112 ft 244 kts 14°
2026-05-05 16:38 23.48667 113.33419 3906 ft 252 kts 13°
2026-05-05 16:38 23.50390 113.33862 4776 ft 257 kts 13°
2026-05-05 16:38 23.52142 113.34315 5649 ft 261 kts 12°
2026-05-05 16:38 23.53928 113.34778 6491 ft 267 kts 12°
2026-05-05 16:39 23.55680 113.35479 7256 ft 274 kts 33°
2026-05-05 16:39 23.57029 113.36942 8119 ft 277 kts 57°
2026-05-05 16:39 23.57673 113.38913 8907 ft 281 kts 87°
2026-05-05 16:39 23.57601 113.41043 9742 ft 283 kts 91°
2026-05-05 16:40 23.57696 113.43206 10467 ft 288 kts 85°
2026-05-05 16:40 23.57858 113.45390 11198 ft 291 kts 85°
2026-05-05 16:40 23.58006 113.47576 11920 ft 295 kts 85°
2026-05-05 16:40 23.58161 113.49820 12622 ft 299 kts 85°
2026-05-05 16:41 23.58331 113.52101 13328 ft 304 kts 85°
2026-05-05 16:41 23.58505 113.54404 14008 ft 308 kts 88°
2026-05-05 16:41 23.58191 113.56715 14577 ft 311 kts 112°
2026-05-05 16:41 23.57116 113.58754 15114 ft 316 kts 131°
2026-05-05 16:42 23.55433 113.60380 15252 ft 333 kts 152°
2026-05-05 16:42 23.53276 113.61467 15417 ft 351 kts 159°
2026-05-05 16:42 23.50984 113.62571 15566 ft 371 kts 158°
2026-05-05 16:42 23.48579 113.63771 15681 ft 390 kts 158°
2026-05-05 16:43 23.46103 113.65031 15813 ft 406 kts 157°
2026-05-05 16:43 23.43519 113.66357 16158 ft 414 kts 157°
2026-05-05 16:43 23.40899 113.67700 16621 ft 419 kts 157°
2026-05-05 16:43 23.38209 113.68933 17070 ft 420 kts 167°
2026-05-05 16:44 23.35331 113.69237 17512 ft 416 kts 188°
2026-05-05 16:44 23.32532 113.68523 17980 ft 413 kts 205°
2026-05-05 16:44 23.30040 113.66999 18416 ft 411 kts 220°
2026-05-05 16:44 23.28025 113.64817 18806 ft 409 kts 236°
2026-05-05 16:45 23.26543 113.62175 19197 ft 410 kts 242°
2026-05-05 16:45 23.25114 113.59488 19615 ft 412 kts 242°
2026-05-05 16:45 23.23633 113.56800 20033 ft 415 kts 241°
2026-05-05 16:45 23.22146 113.54151 20445 ft 418 kts 240°
2026-05-05 16:46 23.20623 113.51452 20859 ft 420 kts 240°
2026-05-05 16:46 23.19095 113.48737 21266 ft 423 kts 241°
2026-05-05 16:46 23.17564 113.46002 21666 ft 425 kts 241°
2026-05-05 16:46 23.16030 113.43247 22102 ft 427 kts 242°
2026-05-05 16:47 23.14493 113.40480 22493 ft 429 kts 241°
2026-05-05 16:47 23.12929 113.37703 22877 ft 432 kts 241°
2026-05-05 16:47 23.11342 113.34924 23245 ft 435 kts 241°
2026-05-05 16:47 23.09730 113.32132 23605 ft 437 kts 240°
2026-05-05 16:48 23.08108 113.29330 23926 ft 439 kts 241°
2026-05-05 16:48 23.06429 113.26606 24236 ft 444 kts 234°
2026-05-05 16:48 23.04203 113.24250 24542 ft 452 kts 220°
2026-05-05 16:48 23.01449 113.22540 24864 ft 462 kts 206°
2026-05-05 16:49 22.98312 113.21640 25144 ft 473 kts 190°
2026-05-05 16:49 22.94998 113.21676 25420 ft 483 kts 174°
2026-05-05 16:49 22.91717 113.22593 25556 ft 490 kts 165°
2026-05-05 16:49 22.88441 113.23720 25584 ft 498 kts 166°
2026-05-05 16:50 22.85126 113.24882 25583 ft 502 kts 165°
2026-05-05 16:50 22.81804 113.26057 25583 ft 503 kts 165°
2026-05-05 16:50 22.78472 113.27231 25583 ft 504 kts 165°
2026-05-05 16:50 22.75179 113.28383 25583 ft 504 kts 165°
2026-05-05 16:51 22.71847 113.29540 25586 ft 503 kts 166°
2026-05-05 16:51 22.68510 113.30693 25586 ft 503 kts 166°
2026-05-05 16:51 22.65168 113.31844 25586 ft 504 kts 166°
2026-05-05 16:51 22.61834 113.32993 25586 ft 503 kts 166°
2026-05-05 16:52 22.58534 113.34145 25573 ft 494 kts 166°
2026-05-05 16:52 22.55279 113.35305 25587 ft 491 kts 165°
2026-05-05 16:52 22.52041 113.36462 25583 ft 490 kts 165°
2026-05-05 16:52 22.48802 113.37619 25584 ft 490 kts 165°
2026-05-05 16:53 22.45565 113.38775 25583 ft 489 kts 165°
2026-05-05 16:53 22.42337 113.39927 25584 ft 489 kts 165°
2026-05-05 16:53 22.39101 113.41081 25584 ft 489 kts 165°
2026-05-05 16:53 22.35868 113.42233 25583 ft 489 kts 165°
2026-05-05 16:54 22.32638 113.43385 25588 ft 489 kts 165°
2026-05-05 16:54 22.29401 113.44541 25580 ft 489 kts 165°
2026-05-05 16:54 22.26176 113.45697 25568 ft 489 kts 166°
2026-05-05 16:54 22.22941 113.46807 25557 ft 486 kts 171°